TimeEDT,TemperatureF,Dew PointF,Humidity,Sea Level PressureIn,VisibilityMPH,Wind Direction,Wind SpeedMPH,Gust SpeedMPH,PrecipitationIn,Events,Conditions,WindDirDegrees,DateUTC
12:15 AM,54.3,49.1,83,29.98,10.0,North,-9999.0,-,N/A,,Mostly Cloudy,0,2013-03-17 04:15:00
12:35 AM,53.6,48.2,82,29.97,10.0,North,-9999.0,-,N/A,,Overcast,0,2013-03-17 04:35:00
12:55 AM,52.5,47.5,83,29.97,10.0,North,-9999.0,-,N/A,,Mostly Cloudy,0,2013-03-17 04:55:00
1:15 AM,50.2,46.8,88,29.97,10.0,North,-9999.0,-,N/A,,Mostly Cloudy,0,2013-03-17 05:15:00
1:35 AM,47.5,45.9,94,29.97,7.0,North,-9999.0,-,N/A,,Scattered Clouds,0,2013-03-17 05:35:00
1:55 AM,46.4,45.5,97,29.98,7.0,North,-9999.0,-,N/A,,Scattered Clouds,0,2013-03-17 05:55:00
2:15 AM,45.5,44.8,97,29.98,5.0,North,-9999.0,-,N/A,,Scattered Clouds,0,2013-03-17 06:15:00
2:35 AM,44.6,44.1,98,29.98,5.0,North,-9999.0,-,N/A,,Mostly Cloudy,0,2013-03-17 06:35:00
2:55 AM,44.6,44.4,99,29.99,5.0,North,-9999.0,-,N/A,,Mostly Cloudy,0,2013-03-17 06:55:00
3:15 AM,43.9,43.5,99,29.99,4.0,North,-9999.0,-,N/A,,Scattered Clouds,0,2013-03-17 07:15:00
3:35 AM,44.4,44.4,100,29.98,5.0,North,-9999.0,-,N/A,,Mostly Cloudy,0,2013-03-17 07:35:00
3:55 AM,44.2,44.2,100,29.98,5.0,North,-9999.0,-,N/A,,Mostly Cloudy,0,2013-03-17 07:55:00
4:15 AM,44.6,44.6,100,29.98,5.0,North,-9999.0,-,N/A,,Mostly Cloudy,0,2013-03-17 08:15:00
4:35 AM,45.0,44.8,99,29.98,5.0,North,-9999.0,-,N/A,,Mostly Cloudy,0,2013-03-17 08:35:00
4:55 AM,45.3,45.0,99,29.98,5.0,North,-9999.0,-,N/A,,Overcast,0,2013-03-17 08:55:00
5:15 AM,45.1,44.6,98,29.98,5.0,North,-9999.0,-,N/A,,Overcast,0,2013-03-17 09:15:00
5:55 AM,45.5,45.1,99,29.99,5.0,North,-9999.0,-,N/A,,Overcast,0,2013-03-17 09:55:00
6:35 AM,45.9,45.5,99,30.00,5.0,North,-9999.0,-,N/A,,Overcast,0,2013-03-17 10:35:00
6:55 AM,45.9,45.7,99,30.01,3.0,North,-9999.0,-,N/A,Rain,Light Rain,0,2013-03-17 10:55:00
7:15 AM,45.7,45.7,100,30.04,2.0,North,-9999.0,-,N/A,Rain,Rain,0,2013-03-17 11:15:00
7:35 AM,45.7,45.7,100,30.05,1.8,North,-9999.0,-,N/A,Rain,Light Rain,0,2013-03-17 11:35:00
7:55 AM,45.9,45.9,100,30.06,1.8,North,-9999.0,-,N/A,Rain,Light Rain,0,2013-03-17 11:55:00
8:15 AM,45.7,45.7,100,30.07,0.8,North,-9999.0,-,N/A,Rain,Light Rain,0,2013-03-17 12:15:00
8:35 AM,46.2,46.2,100,30.07,1.2,North,-9999.0,-,N/A,,Light Drizzle,0,2013-03-17 12:35:00
8:55 AM,45.9,45.9,100,30.08,2.0,North,-9999.0,-,N/A,Rain,Rain,0,2013-03-17 12:55:00
9:15 AM,45.7,45.7,100,30.08,2.5,North,-9999.0,-,N/A,Rain,Rain,0,2013-03-17 13:15:00
9:35 AM,45.9,45.9,100,30.09,2.5,North,-9999.0,-,N/A,,Light Drizzle,0,2013-03-17 13:35:00
9:55 AM,45.7,45.5,99,30.09,3.0,North,-9999.0,-,N/A,,Overcast,0,2013-03-17 13:55:00
10:15 AM,45.9,45.5,99,30.09,4.0,North,-9999.0,-,N/A,,Overcast,0,2013-03-17 14:15:00
10:35 AM,46.4,45.5,97,30.09,4.0,North,-9999.0,-,N/A,,Overcast,0,2013-03-17 14:35:00
10:55 AM,46.4,45.0,95,30.10,5.0,North,-9999.0,-,N/A,,Overcast,0,2013-03-17 14:55:00
11:15 AM,46.4,44.8,94,30.10,5.0,North,-9999.0,-,N/A,,Overcast,0,2013-03-17 15:15:00
11:35 AM,47.1,45.0,92,30.10,7.0,North,-9999.0,-,N/A,,Overcast,0,2013-03-17 15:35:00
11:55 AM,46.9,44.6,92,30.10,7.0,North,-9999.0,-,N/A,,Overcast,0,2013-03-17 15:55:00
12:15 PM,47.7,44.4,89,30.09,7.0,North,-9999.0,-,N/A,,Overcast,0,2013-03-17 16:15:00
12:35 PM,47.8,44.6,89,30.08,10.0,North,-9999.0,-,N/A,,Overcast,0,2013-03-17 16:35:00
12:55 PM,48.2,44.8,88,30.08,10.0,North,-9999.0,-,N/A,,Overcast,0,2013-03-17 16:55:00
1:15 PM,47.7,43.9,87,30.08,10.0,North,-9999.0,-,N/A,,Overcast,0,2013-03-17 17:15:00
1:35 PM,47.5,43.9,87,30.08,10.0,North,-9999.0,-,N/A,,Overcast,0,2013-03-17 17:35:00
2:15 PM,47.3,43.2,86,30.06,10.0,North,-9999.0,-,N/A,,Overcast,0,2013-03-17 18:15:00
2:35 PM,47.5,43.3,86,30.06,10.0,North,-9999.0,-,N/A,,Overcast,0,2013-03-17 18:35:00
2:55 PM,47.3,42.6,84,30.06,10.0,North,-9999.0,-,N/A,,Overcast,0,2013-03-17 18:55:00
3:15 PM,47.3,42.8,84,30.04,10.0,North,-9999.0,-,N/A,,Overcast,0,2013-03-17 19:15:00
3:35 PM,47.3,42.8,84,30.03,10.0,North,-9999.0,-,N/A,,Overcast,0,2013-03-17 19:35:00
3:55 PM,48.2,42.8,82,30.03,10.0,North,-9999.0,-,N/A,,Overcast,0,2013-03-17 19:55:00
4:15 PM,47.8,42.8,83,30.03,10.0,North,-9999.0,-,N/A,,Overcast,0,2013-03-17 20:15:00
4:35 PM,48.0,42.8,82,30.03,10.0,North,-9999.0,-,N/A,,Overcast,0,2013-03-17 20:35:00
4:55 PM,47.7,42.8,83,30.03,10.0,North,-9999.0,-,N/A,,Overcast,0,2013-03-17 20:55:00
5:15 PM,47.3,42.1,82,30.03,10.0,North,-9999.0,-,N/A,,Overcast,0,2013-03-17 21:15:00
5:35 PM,46.8,41.9,83,30.03,10.0,North,-9999.0,-,N/A,,Overcast,0,2013-03-17 21:35:00
5:55 PM,46.6,41.9,84,30.04,10.0,North,-9999.0,-,N/A,,Overcast,0,2013-03-17 21:55:00
6:15 PM,46.4,41.5,83,30.04,10.0,North,-9999.0,-,N/A,,Overcast,0,2013-03-17 22:15:00
6:35 PM,46.4,41.9,84,30.04,10.0,North,-9999.0,-,N/A,,Overcast,0,2013-03-17 22:35:00
6:55 PM,46.4,41.9,84,30.05,10.0,North,-9999.0,-,N/A,,Overcast,0,2013-03-17 22:55:00
7:15 PM,45.7,42.1,87,30.05,10.0,North,-9999.0,-,N/A,,Light Drizzle,0,2013-03-17 23:15:00
7:35 PM,45.9,42.4,88,30.05,10.0,North,-9999.0,-,N/A,,Overcast,0,2013-03-17 23:35:00
7:55 PM,45.5,42.8,90,30.04,7.0,North,-9999.0,-,N/A,Rain,Rain,0,2013-03-17 23:55:00
8:15 PM,45.0,43.2,93,30.04,7.0,North,-9999.0,-,N/A,Rain,Light Rain,0,2013-03-18 00:15:00
8:35 PM,44.8,43.7,96,30.05,5.0,North,-9999.0,-,N/A,Rain,Light Rain,0,2013-03-18 00:35:00
8:55 PM,44.8,43.9,97,30.03,5.0,North,-9999.0,-,N/A,Rain,Light Rain,0,2013-03-18 00:55:00
9:15 PM,45.3,44.4,97,30.04,7.0,North,-9999.0,-,N/A,,Drizzle,0,2013-03-18 01:15:00
9:35 PM,45.5,44.6,97,30.04,10.0,North,-9999.0,-,N/A,Rain,Rain,0,2013-03-18 01:35:00
9:55 PM,45.9,44.6,95,30.05,10.0,North,-9999.0,-,N/A,,Light Drizzle,0,2013-03-18 01:55:00
10:15 PM,46.0,44.2,93,30.04,10.0,North,-9999.0,-,N/A,,Overcast,0,2013-03-18 02:15:00
10:35 PM,46.0,43.2,90,30.04,10.0,North,-9999.0,-,N/A,Rain,Light Rain,0,2013-03-18 02:35:00
10:55 PM,45.7,42.4,88,30.05,10.0,North,-9999.0,-,N/A,,Overcast,0,2013-03-18 02:55:00
11:15 PM,45.5,41.9,87,30.05,10.0,North,-9999.0,-,N/A,,Overcast,0,2013-03-18 03:15:00
11:35 PM,45.5,41.4,85,30.05,10.0,North,-9999.0,-,N/A,,Overcast,0,2013-03-18 03:35:00
11:55 PM,45.5,40.8,84,30.04,10.0,North,-9999.0,-,N/A,,Overcast,0,2013-03-18 03:55:00